Regional Weather Roundup
Issued by NWS

Home | Current Version | Previous Version | Graphics & Text | Print | Product List | Glossary On
Versions: 1 2 3 4 5 6 7 8 9 10 11 12 13 14 15 16 17 18 19 20 21 22 23 24 25 26 27 28 29 30 31 32 33 34 35 36 37 38 39 40 41 42 43 44 45 46 47 48 49 50
000
ASUS45 KSLC 031110
RWRUT

UTAH REGIONAL WEATHER ROUNDUP
NATIONAL WEATHER SERVICE SALT LAKE CITY UT
500 AM MDT FRI JUL 03 2015

UTZ001>011-023>025-031200-

NORTHERN UTAH

CITY           SKY/WX    TMP DP  RH WIND       PRES   REMARKS
BRIGHAM CITY   CLEAR     68  46  45 CALM      30.00S
HILL AFB       CLEAR     70  46  42 E16       30.04R
LOGAN          CLEAR     59  51  75 CALM      30.03S
OGDEN          CLEAR     73  47  39 SE6       30.01S
PROVO AIRPORT  PTCLDY    64  43  45 SE5       30.05R
SALT LAKE CITY PTCLDY    76  50  40 SE7       29.99R
VERNAL         CLEAR     69  44  40 NW6       30.08S
WENDOVER       PTCLDY    79  45  29 CALM      30.01S
HEBER CITY     PTCLDY    54  45  71 CALM      30.16R
WEST JORDAN    CLEAR     72  45  37 CALM      30.03S

$$

UTZ012>022-026-027-031200-

SOUTHERN/CENTRAL UTAH

CITY           SKY/WX    TMP DP  RH WIND       PRES   REMARKS
BLANDING       MOCLDY    62  56  80 N7        30.23S
BRYCE CANYON   PTCLDY    57  49  74 W8        30.29S
CEDAR CITY     MOCLDY    62  51  67 CALM      30.13S
DELTA          CLEAR     68  49  49 MISG      30.06R
HANKSVILLE     MOCLDY    68  39  34 E5        30.01R
MILFORD        MOCLDY    70  52  52 S8        30.07S
MOAB/CYNLANDS  CLEAR     79  52  38 S13       29.98R
PRICE          PTCLDY    67  33  28 N7        30.10R
ST GEORGE      MOSUNNY   81  54  39 SE5       29.93S
KANAB          MOCLDY    64  55  72 CALM      30.14S

$$

REGIONAL REPORTS     COLORADO/ARIZONA

CITY           SKY/WX    TMP DP  RH WIND       PRES   REMARKS
CRAIG, CO      PTCLDY    57  46  66 CALM      30.20R
GRAND JUNCTION PTCLDY    70  47  43 E10       30.03R
RIFLE          PTCLDY    65  45  48 CALM      30.11R
MONTROSE       PTCLDY    67  49  52 SE5       30.16R
CORTEZ         CLEAR     59  53  80 CALM      30.17R
PAGE, AZ       CLOUDY    79  50  36 SE3       29.99S
GRAND CANYON     N/A    N/A N/A N/A MISG      30.23R
KINGMAN        CLEAR     73  50  44 E3        29.97S
FLAGSTAFF      MOCLDY    61  50  67 SW10      30.24F

$$

REGIONAL REPORTS    NEVADA/IDAHO/WYOMING

CITY           SKY/WX    TMP DP  RH WIND       PRES   REMARKS
LAS VEGAS, NV  MOCLDY    91  51  25 S15       29.81S
ELY            MOCLDY    62  52  69 S6        30.20F
ELKO           PTCLDY    63  49  60 E6        30.12S
POCATELLO, ID  CLEAR     58  46  64 S6        30.02S
BURLEY         CLEAR     66  47  50 W3        29.98R
EVANSTON, WY   PTCLDY    59  42  53 SE7       30.26S
ROCK SPRINGS   CLEAR     58  50  75 E6        30.24S
KEMMERER       CLEAR     55  45  67 N10       30.28S

$$



USA.gov is the U.S. government's official web portal to all federal, state and local government web resources and services.